Regional Weather Roundup
Issued by NWS

Home | Current Version | Previous Version | Text Only | Print | Product List | Glossary On
Versions: 1 2 3 4 5 6 7 8 9 10 11 12 13 14 15 16 17 18 19 20 21 22 23 24 25 26 27 28 29 30 31 32 33 34 35 36 37 38 39 40 41 42 43 44 45 46 47 48 49 50
000
ASPQ40 PGUM 220810
RWRPQ
WEATHER ROUNDUP FOR THE MARIANAS AND MICRONESIA
NATIONAL WEATHER SERVICE TIYAN GU
600 PM CHST TUE MAY 22 2018

GUZ001>004-220900-
MARIANA ISLANDS-

CITY           SKY/WX    TMP DP  RH WIND       PRES   REMARKS
GUAM AIRPORT   CLEAR     84  81  89 NE5       29.83R HX  98
ANDERSEN AFB   MOCLDY    82  77  83 N5        29.84R HX  91
ROTA AIRPORT   MOCLDY    82  77  83 NE5       29.83R HX  91
TINIAN AP      MOCLDY    82  79  89 SE2       29.81  HX  93
SAIPAN AP      CLOUDY    84  79  84 E5        29.83R HX  96

$$

PMZ161-220900-
REPUBLIC OF PALAU-

CITY           SKY/WX    TMP DP  RH WIND       PRES   REMARKS
KOROR AP       PTSUNNY   86  75  70 E3        29.76S HX  95
KOROR WSO      PTSUNNY   88  77  70 SE7       29.77S HX 100

$$

PMZ171>174-220900-
FEDERATED STATES OF MICRONESIA-

CITY           SKY/WX    TMP DP  RH WIND       PRES   REMARKS
YAP AIRPORT    PTSUNNY   88  77  70 CALM      29.77F HX 100
CHUUK AP       PTCLDY    86  79  79 VRB6      29.82  HX  99
POHNPEI AP     NOT AVBL
POHNPEI WSO    LGT RAIN  79  77  94 E2        29.84S
KOSRAE AP      NOT AVBL

$$

PMZ181-220900-
REPUBLIC OF THE MARSHALL ISLANDS-

CITY           SKY/WX    TMP DP  RH WIND       PRES   REMARKS
KWAJALEIN AP   PTCLDY    81  77  89 E16       29.86R
MAJURO AP      NOT AVBL
MAJURO WSO     MOCLDY    82  77  83 E6        29.82R HX  91

$$




USA.gov is the U.S. government's official web portal to all federal, state and local government web resources and services.